Voltar ao catálogo

SL-12 R/B(2)

AtivoGEO
NORAD 23111·ROCKET BODY·🇷🇺 Russia

Lançado May 20, 1994 de Baikonur Cosmodrome

Loading…

TLE

AtualizadoSource: Space-Track

Época: Aug 31, 2026, 23:05 UTC

1 23111U 94030D   26243.96216296 -.00000054  00000-0  00000+0 0  9991
2 23111  12.5501 342.4722 0045168 195.9286 155.6982  1.03837721122443

Acompanhe SL-12 R/B(2) em tempo real com AllMySat

Download on the App Store